Location: Iesi
(43.5167°N, 13.2333°E)
Time: 15:00:44
(UTC+00:00)

SL-4 R/B - Visible Passes

Search period start: 09 December 2021 00:00
Search period end: 19 December 2021 00:00
Orbit: 427 x 661 km, 51.6° (Epoch: 08 December)

Date Brightness Start Highest point End Pass type
(mag) Time Alt. Az. Time Alt. Az. Time Alt. Az.
09 Dec 3.0 04:24:19 25° S 04:25:42 36° SE 04:29:05 10° ENE visible
10 Dec 2.3 04:18:05 48° SSE 04:18:14 49° SE 04:21:46 10° ENE visible
10 Dec 2.5 05:54:33 10° W 05:57:51 35° NNW 06:01:23 10° NE visible
11 Dec 2.6 04:11:37 47° E 04:11:37 47° E 04:14:23 10° ENE visible
11 Dec 2.7 05:47:20 10° W 05:50:32 31° NNW 05:53:57 10° NE visible
12 Dec 3.3 04:04:58 31° ENE 04:04:58 31° ENE 04:07:00 10° ENE visible
12 Dec 2.9 05:40:31 12° WNW 05:43:14 27° NNW 05:46:31 10° NE visible
13 Dec 3.9 03:58:11 21° NE 03:58:11 21° NE 03:59:34 10° NE visible
13 Dec 3.0 05:33:44 15° WNW 05:35:57 25° N 05:39:08 10° NE visible
14 Dec 4.3 03:51:19 16° NE 03:51:19 16° NE 03:52:09 10° NE visible
14 Dec 3.1 05:26:50 16° NW 05:28:40 24° N 05:31:45 10° NE visible
15 Dec 4.7 03:44:20 12° NE 03:44:20 12° NE 03:44:42 10° NE visible
15 Dec 3.2 05:19:52 18° NW 05:21:23 23° N 05:24:24 10° NE visible
16 Dec 3.3 05:12:51 19° NNW 05:14:05 22° N 05:17:05 10° NE visible
17 Dec 3.2 05:05:48 20° NNW 05:06:48 22° N 05:09:47 10° ENE visible
18 Dec 3.2 04:58:43 21° NNW 04:59:31 23° N 05:02:32 10° ENE visible
